[[[{"header":{"parameterUnit":"kt","parameterCategory":2,"dx":1,"dy":1,"la1":30.253999710083008,"la2":30.299108505249023,"lo1":-89.0895004272461,"lo2":-89.04439544677734,"nx":28,"ny":28,"refTime":"2022-10-30T21:00:00:Z","depth":0,"parameterNumber":1,"parameterNumberName":"U-component_of_WINDS"},"data":[0.8467,0.848,0.8488,0.8507,0.8516,0.8531,0.8539,0.855,0.8561,0.858,0.8593,0.8602,0.8616,0.8634,0.8649,0.8653,0.8659,0.866,0.8665,0.8656,0.8655,0.8654,0.8652,0.8661,0.8661,0.8673,0.8673,0.8673,0.8464,0.8473,0.8485,0.8501,0.8511,0.8516,0.8529,0.8538,0.8551,0.8564,0.8577,0.8595,0.861,0.8624,0.864,0.8648,0.8652,0.8652,0.8652,0.8655,0.8645,0.8642,0.865,0.865,0.865,0.865,0.865,0.865,0.8459,0.8466,0.848,0.8492,0.8502,0.8513,0.8522,0.8532,0.8544,0.8561,0.8567,0.8582,0.8597,0.8619,0.8628,0.8642,0.8642,0.8645,0.8646,0.8647,0.8648,0.8632,0.8644,0.8644,0.8644,0.8644,0.8644,0,0.8458,0.8463,0.8474,0.8487,0.8497,0.8508,0.8519,0.8525,0.8538,0.8548,0.8562,0.8571,0.8591,0.8605,0.8622,0.8631,0.8637,0.8637,0.864,0.8638,0.8634,0.8638,0.8624,0.8637,0.8637,0.8637,0.8637,0.8637,0.8455,0.8462,0.8478,0.8485,0.8493,0.8504,0.8512,0.8523,0.8531,0.8547,0.8553,0.8568,0.858,0.8602,0.8614,0.8628,0.8631,0.8636,0.8634,0.8632,0.8633,0.8633,0.8635,0.8636,0.8636,0.8636,0.8636,0,0.8453,0.8463,0.8476,0.8491,0.8495,0.8503,0.8516,0.8524,0.8533,0.8545,0.8549,0.8562,0.8576,0.8587,0.8605,0.8611,0.8626,0.8628,0.8622,0.8623,0.8629,0.8629,0.8645,0.8648,0.8638,0.8638,0.8638,0,0.8455,0.8463,0.8478,0.8485,0.8495,0.8505,0.8515,0.8524,0.8535,0.8544,0.8552,0.8561,0.8573,0.8585,0.8593,0.8607,0.861,0.8615,0.8617,0.8615,0.8614,0.862,0.862,0.862,0.862,0.862,0.862,0,0.8451,0.8468,0.8479,0.8484,0.8501,0.8506,0.8513,0.8525,0.8533,0.8544,0.855,0.8562,0.857,0.858,0.859,0.8588,0.8607,0.8606,0.8613,0.8613,0.8616,0.8616,0.8627,0.862,0.862,0.862,0.862,0,0.8453,0.8463,0.8477,0.8492,0.8496,0.8503,0.8516,0.8524,0.8536,0.8541,0.855,0.8556,0.8568,0.8567,0.8584,0.8579,0.8586,0.8592,0.8593,0.8595,0.8594,0.86,0.8608,0.861,0.8597,0.8597,0.8597,0,0.8447,0.8463,0.8471,0.8484,0.8492,0.85,0.8508,0.8518,0.8526,0.8535,0.8543,0.8554,0.8555,0.856,0.8567,0.8576,0.8583,0.8575,0.8591,0.8591,0.8589,0.8596,0.8595,0.8605,0.8594,0.8595,0.8595,0,0.8443,0.8462,0.8463,0.847,0.8484,0.849,0.8499,0.8511,0.8517,0.8527,0.8535,0.8549,0.8552,0.8559,0.8564,0.8571,0.8578,0.8572,0.8572,0.8574,0.8593,0.8593,0.8594,0.8581,0.8582,0.8582,0.8593,0,0.8448,0.8456,0.846,0.8473,0.848,0.8487,0.8497,0.8503,0.8508,0.8515,0.8527,0.8537,0.8549,0.8552,0.8557,0.8568,0.8568,0.8569,0.8569,0.8573,0.8577,0.8579,0.8562,0.8562,0.8562,0.8563,0,0,0.844,0.8451,0.8459,0.8467,0.8473,0.848,0.8487,0.8494,0.8507,0.8512,0.8512,0.8532,0.854,0.8554,0.8556,0.856,0.8563,0.8561,0.8571,0.8572,0.8573,0.8577,0.8578,0.8563,0.8563,0.8563,0.8563,0,0.8443,0.8449,0.8456,0.8463,0.8474,0.848,0.8482,0.8494,0.8498,0.8509,0.8515,0.8523,0.8538,0.8546,0.8552,0.8559,0.8563,0.8562,0.8563,0.8571,0.8572,0.8572,0.8577,0.8578,0.8563,0.8563,0.8563,0,0.8442,0.845,0.8454,0.8466,0.8473,0.8481,0.8484,0.8491,0.8498,0.8504,0.8514,0.8521,0.8532,0.8543,0.8548,0.8548,0.8563,0.8559,0.8559,0.856,0.8568,0.8569,0.857,0.8558,0.8558,0.8558,0,0,0.8444,0.845,0.8462,0.8467,0.8471,0.8481,0.8486,0.849,0.8499,0.8503,0.8511,0.852,0.8529,0.8535,0.8544,0.8554,0.8557,0.8558,0.8558,0.8558,0.8559,0.8567,0.8568,0.8558,0.8558,0.8558,0,0,0.8444,0.8458,0.846,0.8468,0.8476,0.8488,0.8491,0.8495,0.8504,0.8504,0.8512,0.8515,0.8525,0.8531,0.8527,0.8544,0.8544,0.8545,0.854,0.854,0.854,0.8539,0.8531,0,0,0,0,0,0.8452,0.8456,0.8458,0.8461,0.8476,0.8486,0.8489,0.8495,0.8496,0.8499,0.8506,0.8509,0.8531,0.8528,0.8531,0.8535,0.8556,0.8556,0.8556,0.8552,0.8553,0.8553,0,0,0,0,0,0,0.8453,0.8456,0.8458,0.847,0.8473,0.8486,0.8488,0.849,0.8495,0.8496,0.8508,0.851,0.8516,0.8527,0.8529,0.8533,0.853,0.8556,0.8556,0.8557,0.8553,0.8553,0.8553,0,0,0,0,0,0.8454,0.8456,0.8479,0.847,0.8473,0.8483,0.8488,0.849,0.8494,0.8505,0.8507,0.8499,0.8516,0.8518,0.8528,0.8532,0.8528,0.8529,0.8556,0.8556,0.8557,0.8553,0,0,0,0,0,0,0.8455,0.8458,0.848,0.8481,0.8468,0.8483,0.8485,0.8489,0.8503,0.8505,0.8496,0.8497,0.8516,0.8518,0.852,0.8531,0.8527,0.8528,0.8529,0.8556,0.8556,0.8557,0,0,0,0,0,0,0.8457,0.8459,0.848,0.8478,0.8479,0.8482,0.8484,0.8493,0.8503,0.8493,0.8494,0.8496,0.8513,0.8517,0.8519,0.8533,0.8526,0.8527,0.8528,0.8528,0.8556,0.8557,0,0,0,0,0,0,0.8458,0.846,0.8478,0.8479,0.8479,0.8494,0.849,0.8506,0.8501,0.8493,0.85,0.85,0.8513,0.8514,0.8518,0.8532,0.8533,0.8526,0.8527,0.8527,0.8527,0,0,0,0,0,0,0,0.8459,0.8444,0.8472,0.8479,0.848,0.8492,0.8493,0.8493,0.8501,0.85,0.85,0.85,0.8521,0.8522,0.8523,0.8531,0,0,0.8526,0.8526,0,0,0,0,0,0,0,0,0.8444,0.8444,0.8472,0.8473,0.8473,0.8492,0.8493,0.8493,0.8501,0.85,0.85,0.85,0.8522,0.8522,0.8523,0,0,0,0,0,0,0,0,0,0,0,0,0,0,0,0.8472,0.8473,0,0.8492,0.8493,0.8493,0.8501,0.8501,0.85,0.85,0.8522,0.8522,0.8523,0,0,0,0,0,0,0,0,0,0,0,0,0,0,0,0,0,0,0,0,0,0,0,0,0,0,0,0,0,0,0,0,0,0,0,0,0,0,0,0,0,0,0,0,0,0,0,0,0,0,0,0,0,0,0,0,0,0,0,0,0,0,0,0,0,0,0,0,0]}],[{"header":{"parameterUnit":"kt","parameterCategory":2,"dx":1,"dy":1,"la1":30.253999710083008,"la2":30.299108505249023,"lo1":-89.0895004272461,"lo2":-89.04439544677734,"nx":28,"ny":28,"refTime":"2022-10-30T21:00:00:Z","depth":0,"parameterNumber":2,"parameterNumberName":"V-component_of_WINDS"},"data":[-1.7196,-1.7292,-1.7326,-1.7453,-1.7505,-1.7598,-1.7642,-1.7704,-1.7761,-1.7877,-1.795,-1.7995,-1.8068,-1.8164,-1.8246,-1.8265,-1.8299,-1.8307,-1.8329,-1.8255,-1.8247,-1.824,-1.8219,-1.8313,-1.8314,-1.8401,-1.8402,-1.8402,-1.7139,-1.7192,-1.7268,-1.7366,-1.7432,-1.7444,-1.7523,-1.7578,-1.7661,-1.7733,-1.7806,-1.7911,-1.7999,-1.807,-1.8161,-1.8209,-1.8221,-1.8232,-1.823,-1.8242,-1.8163,-1.8141,-1.822,-1.822,-1.822,-1.822,-1.822,-1.822,-1.7047,-1.7103,-1.7182,-1.7265,-1.7324,-1.7389,-1.745,-1.7503,-1.7579,-1.7677,-1.7704,-1.7799,-1.7879,-1.8006,-1.8057,-1.8133,-1.8129,-1.8152,-1.8158,-1.8164,-1.8166,-1.8038,-1.815,-1.815,-1.815,-1.815,-1.815,0,-1.699,-1.7015,-1.709,-1.7176,-1.7239,-1.731,-1.738,-1.7418,-1.7484,-1.7544,-1.7635,-1.7693,-1.7808,-1.7899,-1.7992,-1.8041,-1.8063,-1.8068,-1.8084,-1.8074,-1.8053,-1.8068,-1.7941,-1.8065,-1.8064,-1.8064,-1.8063,-1.8063,-1.6901,-1.6962,-1.7061,-1.711,-1.7157,-1.7234,-1.7288,-1.7341,-1.7396,-1.7491,-1.7539,-1.7629,-1.7704,-1.7844,-1.7909,-1.7996,-1.8008,-1.8051,-1.8021,-1.8008,-1.8012,-1.8009,-1.8016,-1.8057,-1.8058,-1.8058,-1.8059,0,-1.6848,-1.6904,-1.701,-1.7102,-1.7128,-1.7189,-1.7269,-1.7328,-1.7374,-1.7462,-1.7485,-1.7559,-1.7647,-1.7705,-1.7818,-1.7846,-1.7951,-1.7959,-1.7925,-1.793,-1.7977,-1.7973,-1.8115,-1.8138,-1.8037,-1.8038,-1.8039,0,-1.6796,-1.6874,-1.6953,-1.7011,-1.71,-1.7151,-1.7238,-1.7287,-1.7355,-1.7425,-1.7456,-1.7521,-1.7584,-1.7658,-1.7699,-1.7795,-1.7816,-1.7844,-1.7854,-1.7843,-1.7839,-1.7875,-1.7872,-1.7872,-1.7871,-1.7871,-1.787,0,-1.6709,-1.6842,-1.6937,-1.6976,-1.7083,-1.7127,-1.7174,-1.7251,-1.7303,-1.738,-1.7415,-1.75,-1.7548,-1.7615,-1.7667,-1.7644,-1.7785,-1.7765,-1.7814,-1.7813,-1.7844,-1.7842,-1.7951,-1.7869,-1.7869,-1.7869,-1.7868,0,-1.6676,-1.6752,-1.6879,-1.697,-1.7003,-1.7065,-1.7153,-1.7219,-1.7299,-1.7328,-1.7389,-1.7418,-1.7505,-1.7481,-1.7603,-1.7559,-1.7605,-1.7639,-1.7643,-1.7657,-1.763,-1.7687,-1.7782,-1.7796,-1.7667,-1.7665,-1.7664,0,-1.6563,-1.6707,-1.6752,-1.6873,-1.6947,-1.6978,-1.7049,-1.7117,-1.7163,-1.7234,-1.7284,-1.7365,-1.7359,-1.7392,-1.7444,-1.7501,-1.7557,-1.7494,-1.76,-1.7603,-1.758,-1.7668,-1.7669,-1.7754,-1.7643,-1.7645,-1.7646,0,-1.6482,-1.6611,-1.6629,-1.6677,-1.6776,-1.6838,-1.6918,-1.7009,-1.7054,-1.7127,-1.7197,-1.731,-1.7312,-1.7366,-1.7399,-1.745,-1.7521,-1.7445,-1.7448,-1.7459,-1.7636,-1.7637,-1.7651,-1.7531,-1.7534,-1.7536,-1.763,0,-1.6424,-1.6503,-1.6554,-1.6657,-1.6714,-1.6792,-1.6853,-1.6905,-1.693,-1.6977,-1.708,-1.7151,-1.7245,-1.7275,-1.7301,-1.7399,-1.7392,-1.7393,-1.7376,-1.7432,-1.7465,-1.7478,-1.7322,-1.7322,-1.7322,-1.7322,0,0,-1.6303,-1.6417,-1.6465,-1.6544,-1.6595,-1.6627,-1.6705,-1.6759,-1.6867,-1.6902,-1.6892,-1.7063,-1.7122,-1.7242,-1.7264,-1.7301,-1.7325,-1.7303,-1.7404,-1.7413,-1.7421,-1.7455,-1.7468,-1.7322,-1.7322,-1.7321,-1.7321,0,-1.6295,-1.6352,-1.6428,-1.6485,-1.6572,-1.6617,-1.6635,-1.6727,-1.6761,-1.6861,-1.6887,-1.6956,-1.7091,-1.7151,-1.7199,-1.7289,-1.7307,-1.7313,-1.7342,-1.7401,-1.741,-1.7418,-1.7453,-1.7464,-1.7321,-1.7321,-1.7321,0,-1.6228,-1.6295,-1.6338,-1.6455,-1.6512,-1.6588,-1.6584,-1.6664,-1.6721,-1.6753,-1.6853,-1.6901,-1.6986,-1.709,-1.7138,-1.7132,-1.7286,-1.7248,-1.725,-1.7258,-1.7318,-1.7329,-1.7338,-1.7213,-1.7212,-1.7211,0,0,-1.6213,-1.6286,-1.6375,-1.6458,-1.6492,-1.656,-1.6606,-1.6636,-1.6711,-1.6741,-1.6804,-1.6876,-1.6956,-1.7007,-1.7084,-1.7188,-1.7212,-1.7232,-1.7237,-1.7241,-1.725,-1.7312,-1.7322,-1.7209,-1.7209,-1.7209,0,0,-1.6207,-1.6313,-1.6325,-1.6428,-1.6497,-1.6592,-1.664,-1.6658,-1.6734,-1.6732,-1.6788,-1.681,-1.6908,-1.6955,-1.6915,-1.708,-1.7061,-1.7072,-1.7046,-1.7053,-1.7058,-1.7046,-1.6924,0,0,0,0,0,-1.623,-1.63,-1.631,-1.6336,-1.6484,-1.6586,-1.6605,-1.6653,-1.6639,-1.6676,-1.6732,-1.6746,-1.6945,-1.6912,-1.6938,-1.6982,-1.7178,-1.7184,-1.7189,-1.718,-1.7187,-1.7193,0,0,0,0,0,0,-1.624,-1.6272,-1.6308,-1.6404,-1.6438,-1.6584,-1.6571,-1.6586,-1.6636,-1.6637,-1.6735,-1.675,-1.6793,-1.6902,-1.6925,-1.6965,-1.6916,-1.718,-1.7185,-1.7189,-1.7182,-1.7188,-1.7193,0,0,0,0,0,-1.6249,-1.6275,-1.6499,-1.6403,-1.6433,-1.6513,-1.6569,-1.6581,-1.6621,-1.6707,-1.6722,-1.6652,-1.6793,-1.6815,-1.6916,-1.6954,-1.6901,-1.6909,-1.7183,-1.7187,-1.719,-1.7185,0,0,0,0,0,0,-1.6256,-1.6287,-1.6507,-1.6517,-1.638,-1.6505,-1.6527,-1.6577,-1.6689,-1.6704,-1.6627,-1.6626,-1.6793,-1.6811,-1.6828,-1.6947,-1.6888,-1.6897,-1.6902,-1.7186,-1.7189,-1.7192,0,0,0,0,0,0,-1.6274,-1.6296,-1.6512,-1.648,-1.6488,-1.6499,-1.6517,-1.661,-1.6689,-1.6602,-1.6605,-1.6625,-1.6768,-1.6808,-1.6821,-1.6964,-1.6879,-1.6887,-1.6892,-1.6896,-1.7188,-1.7191,0,0,0,0,0,0,-1.6284,-1.6304,-1.6478,-1.6484,-1.649,-1.6615,-1.6581,-1.6731,-1.6661,-1.6597,-1.6656,-1.6654,-1.6765,-1.678,-1.6817,-1.6953,-1.6961,-1.6879,-1.6885,-1.6888,-1.6891,0,0,0,0,0,0,0,-1.6293,-1.6152,-1.6442,-1.6487,-1.6492,-1.6617,-1.662,-1.6623,-1.666,-1.6658,-1.6656,-1.6655,-1.6833,-1.6842,-1.6851,-1.6945,0,0,-1.6878,-1.6882,0,0,0,0,0,0,0,0,-1.6145,-1.615,-1.6443,-1.6445,-1.6447,-1.6617,-1.662,-1.6622,-1.666,-1.6658,-1.6657,-1.6655,-1.6835,-1.6843,-1.685,0,0,0,0,0,0,0,0,0,0,0,0,0,0,0,-1.6443,-1.6445,0,-1.6618,-1.662,-1.6622,-1.666,-1.6658,-1.6657,-1.6656,-1.6837,-1.6843,-1.6849,0,0,0,0,0,0,0,0,0,0,0,0,0,0,0,0,0,0,0,0,0,0,0,0,0,0,0,0,0,0,0,0,0,0,0,0,0,0,0,0,0,0,0,0,0,0,0,0,0,0,0,0,0,0,0,0,0,0,0,0,0,0,0,0,0,0,0,0,0]}]]]